www.pogodaiklimat.ru

Погода и климат >> Архив погоды >> Россия >> Краснодарский край >> Тимашевск


ПОГОДА в Тимашевске

  • Прогноз погоды в Тимашевске
  • Монитор погоды в Тимашевске

АРХИВ ПОГОДЫ в Тимашевске

Время (UTC), дата Ветер
(напр.,м/с)
 
Видим.   Явления Облачность Т
(С)
Тd
(С)
f
(%)
Тe
(С)
Тes
(С)
Комфортность P
(гПа)
Po
(гПа)
Тmin
(С)
Tmax
(С)
R
(мм)
R24
(мм)
S
(см)
12 13.05 З 2 10 км 8/8 600 м
[Cu med, cong]
+20.7 +12.6 60 +24 +26 комфорт 1020.0 1017.4
15 13.05 З 1 10 км {ливн. осадки} 9/9 600 м
[Cu med, cong]
+19.3 +13.6 70 +22 +22 комфорт 1019.3 1016.7 +21.7 0.3
18 13.05 З 2 10 км {гроза, ливн. осадки} 6/0
[Ac cuf]
+16.1 +13.6 85 +16 +16 1019.9 1017.2
21 13.05 ЮЗ 2 10 км 3/3 600 м
[Sc]
+13.9 +12.2 89 +13 +13 1019.9 1017.3
00 14.05 ЮЗ 2 10 км ясно +12.9 +11.5 91 +12 +12 1019.3 1016.7
03 14.05 ЮЗ 2 10 км ясно +13.0 +11.8 92 +12 +13 1019.6 1016.9 +12.8
06 14.05 З 2 10 км 1/0
[Ci fib]
+18.1 +12.7 71 +19 +28 1019.1 1016.5
09 14.05 З 3 10 км 4/4 1000 м
[Cu hum]
+21.8 +13.8 60 +25 +34 комфорт 1018.7 1016.1
12 14.05 З 3 10 км 8/6 600 м
[Cu med, cong Ci fib]
+23.6 +13.5 53 +26 +30 жарко 1018.3 1015.7
15 14.05 З 3 10 км 3/0
[Ci fib]
+22.3 +12.8 55 +25 +27 комфорт 1018.0 1015.4 +24.0
18 14.05 З 1 10 км 8/0
[Ci sp]
+17.5 +13.1 75 +19 +19 1019.2 1016.6
21 14.05 З 1 10 км 4/0
[Ci fib]
+15.1 +13.1 88 +16 +16 1018.8 1016.1
00 15.05 ЮЗ 1 10 км 3/0
[Ci fib]
+13.8 +12.5 92 +14 +14 1018.4 1015.8
03 15.05 ЮЗ 2 500 м туман ?/? +13.2 +12.4 95 +12 +12 1018.5 1015.8 +12.6
06 15.05 З 2 10 км {туман} 10/0
[Cs]
+19.0 +14.1 73 +21 +28 комфорт 1019.2 1016.6
09 15.05 СЗ 1 10 км 10/1 600 м
[Cu hum Ci]
+25.1 +12.1 44 +27 +42 жарко 1018.3 1015.7
12 15.05 СЗ 2 10 км 10/1 600 м
[Cu hum Ci fib]
+26.9 +10.9 37 +28 +37 жарко 1017.1 1014.6
15 15.05 С 2 10 км 10/0
[Ci fib]
+26.2 +12.4 42 +28 +29 жарко 1016.6 1014.0 +27.4
18 15.05 С 1 10 км 8/0
[Ci fib]
+20.1 +14.9 72 +24 +24 комфорт 1016.9 1014.3
21 15.05 штиль 0 10 км ясно +16.9 +14.5 86 +17 +17 1016.3 1013.7
00 16.05 В 1 10 км ясно +15.1 +11.9 81 +16 +16 1015.7 1013.1
03 16.05 В 1 10 км ясно +16.3 +12.5 78 +17 +18 1015.2 1012.6 +14.4
06 16.05 В 4 10 км 1/0
[Ci fib]
+23.2 +15.0 60 +27 +34 душно 1015.4 1012.8
09 16.05 В 4 10 км 1/0
[Ci fib]
+26.7 +12.6 42 +28 +40 жарко 1013.8 1011.3
12 16.05 В 4 10 км 1/0
[Ci fib]
+28.6 +12.5 37 +30 +38 жарко 1012.7 1010.2
15 16.05 В 3 10 км 3/0
[Ci fib]
+27.8 +13.1 40 +29 +31 жарко 1011.5 1009.0 +28.9
18 16.05 СВ 2 10 км ясно +23.6 +15.0 59 +26 +26 жарко 1011.9 1009.4
21 16.05 СВ 3 10 км ясно +21.6 +15.0 66 +25 +25 комфорт 1011.8 1009.2
00 17.05 СВ 1 10 км 8/0
[Ci fib]
+18.4 +14.3 77 +20 +20 1011.5 1008.9
03 17.05 СВ 3 10 км 10/0
[Ci]
+19.0 +14.6 76 +20 +21 1010.9 1008.3 +18.2
06 17.05 В 4 10 км 10/0
[Ci]
+24.3 +15.9 59 +27 +33 жарко 1011.1 1008.6
09 17.05 ЮВ 1 10 км 8/0
[Ci sp]
+28.7 +14.8 43 +31 +49 жарко 1011.0 1008.5
12 17.05 ЮВ 2 10 км 10/0
[Ci sp]
+30.6 +14.7 38 +33 +43 душно 1010.2 1007.7
15 17.05 В 2 10 км 6/0
[Ci fib]
+29.5 +13.3 37 +31 +33 жарко 1009.2 1006.7 +30.6
18 17.05 СВ 2 10 км 1/0
[Ci fib]
+22.8 +10.4 45 +25 +25 комфорт 1009.3 1006.7
21 17.05 В 1 10 км ясно +19.3 +11.3 60 +21 +21 комфорт 1008.8 1006.2
00 18.05 СВ 2 10 км ясно +17.2 +11.7 70 +18 +18 1008.2 1005.6
03 18.05 В 3 10 км 9/0
[Ac cast Cc]
+18.1 +12.4 69 +18 +19 1007.9 1005.3 +16.8
06 18.05 В 5-10
{10}
10 км 10/3 600 м
[Sc diur, vesp Ci sp]
+21.9 +12.6 56 +24 +27 комфорт 1007.3 1004.7
09 18.05 В 4
{11}
10 км 10/4 600 м
[Sc diur, vesp Ac cast Ci sp]
+25.3 +12.2 44 +27 +31 жарко 1007.6 1005.1
12 18.05 В 6-10
{11}
10 км 10/0
[Cc]
+27.4 +13.3 42 +29 +33 жарко 1006.9 1004.4
15 18.05 В 5-10
{11}
10 км 3/0
[Ac cast Ci fib]
+26.8 +15.1 49 +30 +31 душно 1005.7 1003.2 +27.9
18 18.05 СВ 3
{10}
10 км 8/0
[Ac cast]
+22.3 +13.8 59 +25 +25 комфорт 1006.3 1003.8
21 18.05 СВ 3 10 км 8/0
[Ac cast Ci fib]
+19.8 +11.6 59 +22 +22 комфорт 1006.3 1003.7
00 19.05 В 3 10 км 8/0
[Ac cast Ci]
+17.6 +10.7 64 +18 +18 1005.8 1003.2
03 19.05 В 1 10 км гроза без осадков {ливн. осадки} 10/8 600 м
[Cb cap Ci]
+15.5 +12.7 83 +16 +16 1007.4 1004.8 +15.2 1
06 19.05 В 3 10 км {гроза, ливн. осадки} 10/3 600 м
[Cb cap Ac As Ci]
+19.1 +13.9 72 +21 +23 комфорт 1007.7 1005.1
09 19.05 СВ 3 10 км 10/8 600 м
[Sc Ac trans Ci]
+23.8 +15.8 61 +27 +28 жарко 1009.3 1006.8
12 19.05 ЮВ 1 10 км слаб. ливневой дождь 10/10 600 м
[Cb cap]
+22.5 +16.8 70 +27 +27 душно 1010.9 1008.3
15 19.05 ЮЗ 1 10 км гроза без осадков {ливн. осадки} 10/10 600 м
[Cb cap]
+19.8 +18.1 90 +24 +24 комфорт 1011.6 1009.0 +24.6 3
18 19.05 штиль 0 10 км {гроза, ливн. осадки} 10/0
[Ac und]
+18.2 +17.1 93 +19 +19 1012.2 1009.6
21 19.05 СЗ 1 10 км 10/0
[Cs]
+18.2 +17.3 94 +20 +20 1012.7 1010.1
00 20.05 штиль 0 10 км 6/0
[Ac As]
+17.5 +16.3 93 +17 +17 1012.8 1010.2
03 20.05 СВ 4 10 км слаб. ливневой дождь {гроза} 10/10 600 м
[Cb cap]
+16.7 +14.2 85 +16 +16 1013.8 1011.2 +16.7 0.3
06 20.05 СВ 3 10 км {гроза, ливн. осадки} 8/5 600 м
[Sc diur, vesp Ci ing]
+19.3 +14.2 72 +21 +25 комфорт 1014.8 1012.2
09 20.05 СВ 3 10 км 9/9 600 м
[Cb cap]
+22.4 +14.1 59 +26 +27 жарко 1016.1 1013.5

 

Местоположение метеостанции Тимашевск (Краснодарский край, Россия): широта 45.63 долгота 38.93 высота над уровнем моря 22 м.

В архиве по умолчанию представлена погода в Тимашевске за последнюю неделю. Архивные данные за месяц целиком и за предыдущие месяцы, начиная с января 2011 года, Вы можете получить, выбрав интересующий диапазон дат из раскрывающегося списка и нажав кнопку "Ввод!".


*Определитесь, кто Вы:
робот инопланетянин человек

Внимание! Время в таблицах - всемирное. Для получения местного времени необходимо прибавить поправку, которая равна 3 ч.

Смотрите также архив погоды в соседних городах и на ближайших метеорологических станциях:

Погода в Кореновске (Краснодарский край, Россия) (46 км)
Погода в Каневской (Краснодарский край, Россия) (49 км)
Погода в Краснодаре (Краснодарский край, Россия) (65 км)
Погода в Славянске-на-Кубани (Краснодарский край, Россия) (74 км)
Погода в Приморско-Ахтарске (Краснодарский край, Россия) (75 км)
Погода в Усть-Лабинске (Краснодарский край, Россия) (77 км)
Погода в Сосыке (Краснодарский край, Россия) (89 км)
Погода в Тихорецке (Краснодарский край, Россия) (93 км)
Погода в Староминская (Краснодарский край, Россия) (100 км)
Погода в Крымске (Краснодарский край, Россия) (107 км)

Пояснения к столбцам:

Ветер - указаны скорость ветра в м/с - средняя за 10 мин, порывы в срок и между сроками (в фигурных скобках) и направление, откуда дует ветер: С - северный, СВ - северо-восточный, В - восточный, ЮВ - юго-восточный, Ю - южный, ЮЗ - юго-западный, З - западный, СЗ - северо-западный.
Видимость - горизонтальная дальность видимости в метрах или километрах. При видимости от 1 до 10 км при отсутствии осадков обычно наблюдается дымка, при ухудшении видимости до 1 км и менее - туман. В сухую погоду видимость может ухудшаться дымом, пылью или мглою.
Явления - указаны атмосферные явления, наблюдавшиеся в срок или в последний час перед сроком; фигурными скобками обозначены явления, наблюдавшиеся между сроками (за 1-3 часа до срока); квадратными скобками обозначены град или гололедные отложения с указанием их диаметра в мм.
Облачность - указаны через наклонную черту общая и нижняя облачность в баллах и высота нижней границы облаков в метрах; квадратными скобками обозначены формы облаков: Ci - перистые, Cs - перисто-слоистые, Cc - перисто-кучевые, Ac - высококучевые, As - высокослоистые, Sc - слоисто-кучевые, Ns - слоисто-дождевые, Cu - кучевые, Cb - кучево-дождевые. Подробнее классификацию облаков см. в Атласе облаков (PDF).
T - Температура воздуха - температура, измеренная на высоте 2 м над землей.
Td - Температура точки росы - температура, при понижении до которой содержащийся в воздухе водяной пар достигнет насыщения.
f - Относительная влажность воздуха - влажноcть воздуха, измеренная на высоте 2 м над землей.
Te - Эффективная температура - температура, которую ощущает одетый по сезону человек в тени. Характеристика душности погоды. При расчете учитывается влияние влажности воздуха и скорости ветра на теплоощущения человека.
Tes - Эффективная температура на солнце - температура, которую ощущает человек, с поправкой на солнечный нагрев. Характеристика знойности погоды. Зависит от высоты солнца над горизонтом, облачности и скорости ветра. Ночью, в пасмурную погоду, а также при ветре 12 м/с и более поправка равна нулю.
P - Атмосферное давление - приведенное к уровню моря атмосферное давление.
Po - Атмосферное давление - измеренное на уровне метеостанции атмосферное давление.
Tmin - Минимальная температура - минимум температуры воздуха на высоте 2 м над землей.
Tmax - Максимальная температура - максимум температуры воздуха на высоте 2 м над землей.
R - Количество осадков - Количество выпавших осадков за период времени, мм. При наведении курсора мыши на число - период времени, за который выпало указанное количество осадков.
R24 - Количество осадков - Количество выпавших осадков за 24 часа, мм.
S - Снежный покров - Высота снежного покрова, см. При наведении курсора мыши на число - состояние снежного покрова и степень покрытия местности в баллах.